Shirley, NY

1:57 PM EDT on August 22, 2017 (GMT -0400)
Brookhaven

Weather History for KHWV - October, 2013

Change the Weather History Date:

Thursday, October 24, 2013

  Actual Average (KISP) Record (KISP)
Temperature  
Mean Temperature 46 °F -  
Max Temperature 55 °F 58 °F 74 °F (2001)
Min Temperature 37 °F 41 °F 31 °F (2003)
Degree Days  
Heating Degree Days 19    
Moisture  
Dew Point 30 °F    
Average Humidity 57    
Maximum Humidity 89    
Minimum Humidity 31    
Precipitation  
Precipitation 0.00 in - - ()
Sea Level Pressure  
Sea Level Pressure 29.88 in    
Wind  
Wind Speed 7 mph (West)    
Max Wind Speed 16 mph    
Max Gust Speed 24 mph    
Visibility 10 miles    
Events      
Averages and records for this station are not official NWS values.
T = Trace of Precipitation, MM = Missing Value Source: NWS Daily Summary

Daily Weather History Graph

Daily Weather History Graph

Search for Another Location

Airport or City:

Trip Planner

Search our weather history database for the weather conditions in past years. The results will help you decide how hot, cold, wet, or windy it might be!

Date:

Astronomy

Oct. 24, 2013 Rise Set
Actual Time 7:12 AM EDT 5:57 PM EDT
Civil Twilight 6:44 AM EDT 6:25 PM EDT
Nautical Twilight 6:12 AM EDT 6:57 PM EDT
Astronomical Twilight 5:41 AM EDT 7:29 PM EDT
Moon 10:18 PM EDT (10/24) 12:12 PM EDT (10/24)
Length of Visible Light 11h 40m
Length of Day
10h 44m
Waning Gibbous, 71% of the Moon is Illuminated
Oct 24
Waning Gibbous
Oct 26
Last Quarter
Nov 3
New
Nov 10
First Quarter
Nov 17
Full

Hourly Weather History & Observations

Time (EDT) Temp. Windchill Dew Point Humidity Pressure Visibility Wind Dir Wind Speed Gust Speed Precip Events Conditions
12:56 AM 44.1 °F 41.5 °F 37.0 °F 76% 29.74 in 10.0 mi West 4.6 mph - N/A   Mostly Cloudy
1:56 AM 41.0 °F 38.0 °F 35.1 °F 79% 29.75 in 10.0 mi WSW 4.6 mph - N/A   Clear
2:56 AM 39.0 °F 35.7 °F 35.1 °F 86% 29.76 in 10.0 mi West 4.6 mph - N/A   Clear
3:56 AM 37.9 °F - 35.1 °F 89% 29.78 in 10.0 mi Calm Calm - N/A   Clear
4:56 AM 37.0 °F - 34.0 °F 89% 29.81 in 10.0 mi Calm Calm - N/A   Clear
5:56 AM 39.0 °F 34.8 °F 35.1 °F 86% 29.83 in 10.0 mi WNW 5.8 mph - N/A   Clear
6:56 AM 37.9 °F 34.4 °F 33.1 °F 83% 29.86 in 10.0 mi West 4.6 mph - N/A   Clear
7:56 AM 39.9 °F 35.8 °F 35.1 °F 83% 29.89 in 10.0 mi West 5.8 mph - N/A   Clear
8:56 AM 45.0 °F 40.1 °F 36.0 °F 71% 29.91 in 10.0 mi West 9.2 mph - N/A   Clear
9:56 AM 48.0 °F - 35.1 °F 61% 29.92 in 10.0 mi WNW 12.7 mph 20.7 mph N/A   Clear
10:56 AM 50.0 °F - 28.9 °F 44% 29.91 in 10.0 mi West 16.1 mph 21.9 mph N/A   Clear
11:56 AM 53.1 °F - 25.0 °F 34% 29.90 in 10.0 mi West 15.0 mph 24.2 mph N/A   Clear
12:56 PM 54.0 °F - 26.1 °F 34% 29.89 in 10.0 mi West 16.1 mph 21.9 mph N/A   Clear
1:56 PM 55.0 °F - 25.0 °F 31% 29.86 in 10.0 mi West 12.7 mph 20.7 mph N/A   Scattered Clouds
2:56 PM 54.0 °F - 24.1 °F 31% 29.86 in 10.0 mi West 15.0 mph 21.9 mph N/A   Mostly Cloudy
3:56 PM 55.0 °F - 26.1 °F 33% 29.87 in 10.0 mi West 12.7 mph 18.4 mph N/A   Partly Cloudy
4:56 PM 53.1 °F - 26.1 °F 35% 29.88 in 10.0 mi West 6.9 mph - N/A   Clear
5:56 PM 50.0 °F - 25.0 °F 38% 29.90 in 10.0 mi WSW 4.6 mph - N/A   Partly Cloudy
6:56 PM 48.9 °F - 26.1 °F 41% 29.93 in 10.0 mi West 10.4 mph - N/A   Partly Cloudy
7:56 PM 46.0 °F 43.1 °F 27.0 °F 47% 29.95 in 10.0 mi West 5.8 mph - N/A   Clear
8:56 PM 46.0 °F 41.4 °F 26.1 °F 46% 29.96 in 10.0 mi West 9.2 mph - N/A   Clear
9:56 PM 45.0 °F 40.6 °F 26.1 °F 48% 29.97 in 10.0 mi West 8.1 mph - N/A   Clear
10:56 PM 45.0 °F 39.7 °F 26.1 °F 48% 29.98 in 10.0 mi West 10.4 mph - N/A   Clear
11:56 PM 44.1 °F 39.0 °F 26.1 °F 49% 29.99 in 10.0 mi West 9.2 mph - N/A   Clear